When you browse on this site, cookies collect data to enhance your experience and personalize the content and advertising you see.
Visit our Privacy Policy to learn more. By continuing to use the site, you agree to this use of cookies and data.
  • In Hungary
  • List of Countries
  • For 7 days
  • Water Temperature
  • Weather Map
  • News
  • Weather Widgets
  • user-avatar
    Login

    Hourly Weather Nebraska

    Today, 7 December, Saturday

    Time Temperature Precipitation Wind Pressure Humidity
    00:00 -1°C° 0 mm 5 mps 689 mmHg 86%
    01:00 -1°C° 0 mm 4 mps 688 mmHg 86%
    02:00 -1°C° 0 mm 4 mps 688 mmHg 85%
    03:00 -1°C° 0 mm 4 mps 688 mmHg 85%
    04:00 -1°C° 0 mm 4 mps 688 mmHg 85%
    05:00 -1°C° 0 mm 3 mps 687 mmHg 87%
    06:00 -1°C° 0 mm 3 mps 687 mmHg 86%
    07:00 -1°C° 0 mm 4 mps 686 mmHg 85%
    08:00 -1°C° 0 mm 4 mps 685 mmHg 84%
    09:00 0°C° 0 mm 5 mps 685 mmHg 85%
    10:00 +2°C° 0 mm 5 mps 685 mmHg 85%
    11:00 +3°C° 0 mm 5 mps 684 mmHg 86%
    12:00 +5°C° 0 mm 5 mps 683 mmHg 81%
    13:00 +5°C° 0 mm 6 mps 683 mmHg 76%
    14:00 +7°C° 0 mm 6 mps 682 mmHg 72%
    15:00 +6°C° 0 mm 5 mps 682 mmHg 71%
    16:00 +5°C° 0 mm 5 mps 682 mmHg 69%
    17:00 +3°C° 0 mm 5 mps 682 mmHg 68%
    18:00 +3°C° 0 mm 5 mps 682 mmHg 69%
    19:00 +3°C° 0 mm 5 mps 682 mmHg 70%
    20:00 +2°C° 0 mm 5 mps 682 mmHg 70%
    21:00 +3°C° 0 mm 4 mps 681 mmHg 70%
    22:00 +1°C° 0 mm 4 mps 681 mmHg 70%
    23:00 +1°C° 0 mm 4 mps 681 mmHg 71%

    Tomorrow, 8 December, Sunday

    Time Temperature Precipitation Wind Pressure Humidity
    00:00 0°C° 0 mm 4 mps 681 mmHg 72%
    01:00 0°C° 0 mm 4 mps 681 mmHg 73%
    02:00 0°C° 0 mm 3 mps 680 mmHg 74%
    03:00 0°C° 0 mm 3 mps 680 mmHg 72%
    04:00 0°C° 0 mm 3 mps 680 mmHg 71%
    05:00 +1°C° 0 mm 2 mps 680 mmHg 70%
    06:00 +2°C° 0 mm 2 mps 680 mmHg 69%
    07:00 +2°C° 0 mm 2 mps 680 mmHg 69%
    08:00 +2°C° 0 mm 2 mps 680 mmHg 69%
    09:00 +4°C° 0 mm 2 mps 680 mmHg 67%
    10:00 +5°C° 0 mm 2 mps 680 mmHg 65%
    11:00 +7°C° 0 mm 2 mps 680 mmHg 62%
    12:00 +7°C° 0 mm 2 mps 679 mmHg 63%
    13:00 +8°C° 0 mm 2 mps 678 mmHg 63%
    14:00 +9°C° 0 mm 2 mps 678 mmHg 63%
    15:00 +7°C° 0 mm 2 mps 677 mmHg 65%
    16:00 +6°C° 0 mm 2 mps 677 mmHg 67%
    17:00 +5°C° 0 mm 2 mps 677 mmHg 69%
    18:00 +4°C° 0 mm 3 mps 677 mmHg 70%
    19:00 +4°C° 0 mm 3 mps 677 mmHg 70%
    20:00 +4°C° 0 mm 3 mps 676 mmHg 70%
    21:00 +3°C° 0 mm 4 mps 677 mmHg 72%
    22:00 +2°C° 0 mm 6 mps 678 mmHg 74%
    23:00 +2°C° 0 mm 7 mps 678 mmHg 76%

    Day after tomorrow, 9 December, Monday

    Time Temperature Precipitation Wind Pressure Humidity
    00:00 -1°C° 0 mm 8 mps 679 mmHg 77%
    01:00 -4°C° 0 mm 10 mps 680 mmHg 78%
    02:00 -8°C° 0 mm 11 mps 681 mmHg 79%
    03:00 -9°C° 0 mm 10 mps 682 mmHg 76%
    04:00 -10°C° 0 mm 10 mps 682 mmHg 72%
    05:00 -12°C° 0 mm 9 mps 683 mmHg 68%
    06:00 -12°C° 0 mm 9 mps 684 mmHg 66%
    07:00 -12°C° 0 mm 9 mps 685 mmHg 64%
    08:00 -12°C° 0 mm 9 mps 685 mmHg 62%
    09:00 -11°C° 0 mm 8 mps 685 mmHg 58%
    10:00 -9°C° 0 mm 7 mps 685 mmHg 54%
    11:00 -8°C° 0 mm 7 mps 685 mmHg 50%
    12:00 -6°C° 0 mm 6 mps 685 mmHg 48%
    13:00 -4°C° 0 mm 6 mps 685 mmHg 45%
    14:00 -3°C° 0 mm 6 mps 684 mmHg 42%
    15:00 -4°C° 0 mm 5 mps 684 mmHg 44%
    16:00 -2°C° 0 mm 3 mps 684 mmHg 46%
    17:00 -3°C° 0 mm 2 mps 684 mmHg 47%
    18:00 -2°C° 0 mm 3 mps 684 mmHg 49%
    19:00 -2°C° 0 mm 3 mps 684 mmHg 50%
    20:00 -3°C° 0 mm 4 mps 684 mmHg 51%
    21:00 -3°C° 0 mm 4 mps 685 mmHg 54%
    22:00 -3°C° 0 mm 4 mps 685 mmHg 57%
    23:00 -2°C° 0 mm 3 mps 686 mmHg 60%

    10 December, Tuesday

    Time Temperature Precipitation Wind Pressure Humidity
    00:00 -2°C° 0 mm 3 mps 686 mmHg 68%
    01:00 -4°C° 0 mm 3 mps 686 mmHg 75%
    02:00 -4°C° 0 mm 3 mps 686 mmHg 83%
    03:00 -4°C° 0 mm 3 mps 687 mmHg 83%
    04:00 -4°C° 0 mm 2 mps 687 mmHg 84%
    05:00 -4°C° 0 mm 2 mps 688 mmHg 85%
    06:00 -4°C° 0 mm 2 mps 688 mmHg 84%
    07:00 -4°C° 0 mm 2 mps 689 mmHg 83%
    08:00 -4°C° 0 mm 2 mps 689 mmHg 82%
    09:00 -4°C° 0 mm 2 mps 690 mmHg 77%
    10:00 -1°C° 0 mm 1 mps 690 mmHg 71%
    11:00 0°C° 0 mm 1 mps 690 mmHg 66%
    12:00 +1°C° 0 mm 1 mps 690 mmHg 64%
    13:00 +1°C° 0 mm 2 mps 689 mmHg 63%
    14:00 +2°C° 0 mm 2 mps 689 mmHg 62%
    15:00 +1°C° 0 mm 2 mps 689 mmHg 67%
    16:00 -1°C° 0 mm 3 mps 689 mmHg 72%
    17:00 -2°C° 0 mm 3 mps 689 mmHg 77%
    18:00 -3°C° 0 mm 4 mps 689 mmHg 78%
    19:00 -4°C° 0 mm 4 mps 689 mmHg 79%
    20:00 -4°C° 0 mm 4 mps 689 mmHg 80%
    21:00 -4°C° 0 mm 5 mps 689 mmHg 76%
    22:00 -4°C° 0 mm 5 mps 689 mmHg 73%
    23:00 -4°C° 0 mm 5 mps 689 mmHg 69%

    11 December, Wednesday

    Time Temperature Precipitation Wind Pressure Humidity
    00:00 -4°C° 0 mm 5 mps 689 mmHg 69%
    01:00 -3°C° 0 mm 4 mps 689 mmHg 70%
    02:00 -3°C° 0 mm 4 mps 689 mmHg 70%
    03:00 -2°C° 0 mm 3 mps 689 mmHg 69%
    04:00 -2°C° 0 mm 2 mps 689 mmHg 68%
    05:00 -2°C° 0 mm 2 mps 689 mmHg 66%
    06:00 -2°C° 0 mm 2 mps 689 mmHg 66%
    07:00 -2°C° 0 mm 2 mps 690 mmHg 65%
    08:00 -1°C° 0 mm 2 mps 690 mmHg 65%
    09:00 -1°C° 0 mm 3 mps 690 mmHg 64%
    10:00 0°C° 0 mm 3 mps 690 mmHg 62%
    11:00 0°C° 0 mm 4 mps 690 mmHg 61%
    12:00 0°C° 0 mm 4 mps 690 mmHg 61%
    13:00 +1°C° 0 mm 5 mps 689 mmHg 60%
    14:00 +1°C° 0 mm 5 mps 689 mmHg 59%
    15:00 0°C° 0 mm 5 mps 688 mmHg 65%
    16:00 -1°C° 0 mm 5 mps 688 mmHg 70%
    17:00 -2°C° 0 mm 5 mps 687 mmHg 75%
    18:00 -2°C° 0 mm 5 mps 687 mmHg 76%
    19:00 -4°C° 0 mm 5 mps 687 mmHg 76%
    20:00 -4°C° 0 mm 5 mps 686 mmHg 77%
    21:00 -4°C° 0 mm 5 mps 686 mmHg 79%
    22:00 -4°C° 0 mm 5 mps 686 mmHg 81%
    23:00 -2°C° 0 mm 5 mps 686 mmHg 83%

    12 December, Thursday

    Time Temperature Precipitation Wind Pressure Humidity
    00:00 -2°C° 0 mm 5 mps 686 mmHg 81%
    01:00 -1°C° 0 mm 5 mps 686 mmHg 78%
    02:00 0°C° 0 mm 4 mps 686 mmHg 75%
    03:00 -1°C° 0 mm 4 mps 686 mmHg 75%
    04:00 -2°C° 0 mm 5 mps 687 mmHg 75%
    05:00 -2°C° 0 mm 5 mps 687 mmHg 75%
    06:00 -2°C° 0 mm 4 mps 687 mmHg 75%
    07:00 -2°C° 0 mm 4 mps 688 mmHg 74%
    08:00 -1°C° 0 mm 4 mps 689 mmHg 74%
    09:00 0°C° 0 mm 4 mps 689 mmHg 67%
    10:00 +3°C° 0 mm 4 mps 689 mmHg 60%
    11:00 +4°C° 0 mm 4 mps 689 mmHg 54%
    12:00 +5°C° 0 mm 4 mps 689 mmHg 49%
    13:00 +5°C° 0 mm 4 mps 689 mmHg 45%
    14:00 +6°C° 0 mm 4 mps 689 mmHg 41%
    15:00 +4°C° 0 mm 3 mps 688 mmHg 45%
    16:00 +3°C° 0 mm 2 mps 688 mmHg 49%
    17:00 +3°C° 0 mm 1 mps 688 mmHg 53%
    18:00 +3°C° 0 mm 1 mps 688 mmHg 53%
    19:00 +2°C° 0 mm 1 mps 688 mmHg 53%
    20:00 +1°C° 0 mm 2 mps 688 mmHg 53%
    21:00 +1°C° 0 mm 2 mps 688 mmHg 56%
    22:00 0°C° 0 mm 3 mps 687 mmHg 58%
    23:00 -1°C° 0 mm 4 mps 687 mmHg 60%
    Show more